Location: Marcé
(47.5801°N, 0.3280°W)
Time: 15:58:33
(UTC+02:00)

FENGYUN 1C DEB - Pass Details

Date: 12 July 2022
Orbit: 567 x 661 km, 99.1° (Epoch: 16 August)

Event Time Altitude Azimuth Distance (km) Brightness Sun altitude
Rises 22:37:50 0° 3° (N) 2,906 ? -6.2°
Reaches altitude 10° 22:40:26 10° 349° (N) 1,976 ? -6.5°
Maximum altitude 22:43:42 22° 299° (WNW) 1,337 ? -6.9°
Drops below altitude 10° 22:46:53 10° 249° (WSW) 1,921 ? -7.3°
Sets 22:49:23 0° 233° (SW) 2,801 ? -7.6°
